Location: Newark
(51.3318°N, 0.0053°E)
Time: 16:41:47
(UTC+00:00)

M-CUBED/EXP-1 PRIME - Pass Details

Date: 07 July 2022
Orbit: 422 x 631 km, 101.7° (Epoch: 17 August)

Event Time Altitude Azimuth Distance (km) Brightness Sun altitude
Exits shadow 02:09:36 16° 233° (SW) 1,278 ? -11.2°
Maximum altitude 02:10:54 19° 262° (W) 1,158 ? -11.1°
Drops below altitude 10° 02:13:27 10° 309° (NW) 1,641 ? -10.9°
Sets 02:16:01 0° 328° (NNW) 2,568 ? -10.7°
